Location: Ahausen
(50.4985°N, 8.2722°E)
Time: 11:01:32
(UTC+00:00)

Nadezhda 4 Rocket - Pass Details

Date: 18 September 2020
Orbit: 949 x 993 km, 82.9° (Epoch: 25 October)

Event Time Altitude Azimuth Distance (km) Brightness Sun altitude
Rises 18:49:33 0° 352° (N) 3,643 7.4 -12.7°
Reaches altitude 10° 18:52:07 10° 355° (N) 2,690 6.6 -13.1°
Maximum altitude 18:58:12 62° 77° (ENE) 1,063 4.0 -14.0°
Drops below altitude 10° 19:04:14 10° 158° (SSE) 2,670 5.9 -14.9°
Enters shadow 19:04:39 - 158° (SSE) 2,826 6.0 -15.0°
